Regional Weather Roundup
Issued by NWS

Home | Current Version | Previous Version | Text Only | Print | Product List | Glossary On
Versions: 1 2 3 4 5 6 7 8 9 10 11 12 13 14 15 16 17 18 19 20 21 22 23 24 25 26 27 28 29 30 31 32 33 34 35 36 37 38 39 40 41 42 43 44 45 46 47 48 49 50
000
ASUS42 KTBW 301810
RWRFL
FLORIDA REGIONAL WEATHER ROUNDUP
NATIONAL WEATHER SERVICE TAMPA BAY RUSKIN FL
100 PM EST FRI JAN 30 2015

NOTE: "FAIR" INDICATES FEW OR NO CLOUDS BELOW 12,000 FEET WITH NO
SIGNIFICANT WEATHER AND/OR OBSTRUCTIONS TO VISIBILITY.


FLZ001>010-012>015-112-114-115-301900-
PANHANDLE FLORIDA

CITY           SKY/WX    TMP DP  RH WIND       PRES   REMARKS
PENSACOLA      MOSUNNY   55  33  43 N14G22    30.32F
PENSACOLA NAS  PTSUNNY   55  33  43 N13G20    30.31F
MILTON NAS     PTSUNNY   56  32  40 N14       30.32F
CRESTVIEW      SUNNY     57  32  38 N8        30.33F
DUKE FIELD     PTSUNNY   58  31  35 N12G20    30.30F
VALPARAISO     MOSUNNY   58  33  37 N13       30.30F
MARY ESTHER    MOSUNNY   57  29  33 N15       30.29F
TRI COUNTY     FAIR      57  32  38 N9        30.31F
PANAMA CITY    FAIR      57  35  43 NW12G21   30.27F
TYNDALL AFB    SUNNY     58  36  44 N9        30.28F
APALACHICOLA   SUNNY     65  37  35 N12G21    30.24F

STATION/POSITION SKY/WX   TEMP    WIND        PRES    WAVE   SWELL
                          AIR SEA DIR/SP/G            HT/PER HT/PER
                          (F)     (DEG/KT/KT) (MB)    (FT/S) (FT/S)
30.1N   87.6W              52 62   20/ 16/ 21 1026.1F   3/ 4
29.2N   88.2W              53 69   30/ 19/ 21 1027.4F   6/ 6
28.7N   86.0W              59 69   10/ 19/ 23 1024.6F   5/ 5
PANAMA CITY BEAC           54 60  360/ 10/ 14 1025.3F
CAPE SAN BLAS    NOT AVBL
TOWER C                    56     360/ 15/ 16 1023.6F
28.5N   84.5W              63 67  360/ 17/ 19 1023.1F   3/ 4

$$
FLZ011-016>038-118-127-128-134-139-239-301900-
NORTH FLORIDA

CITY           SKY/WX    TMP DP  RH WIND       PRES   REMARKS
MARIANNA       SUNNY     57  32  38 N13G20    30.29F
TALLAHASSEE    MOSUNNY   60  34  37 NW12      30.25F
PERRY          SUNNY     63  40  42 N14       30.22F
CROSS CITY       N/A     66  43  43 N13       30.19F
LAKE CITY      FAIR      63  45  51 N13G18    30.19F
GAINESVILLE    MOSUNNY   67  45  45 NW14      30.17F
MAYPORT NAS    MOSUNNY   65  48  54 NW10      30.16F
JACKSONVILLE   MOSUNNY   65  45  48 NW10G21   30.16F
JAX NAS        MOSUNNY   68  44  42 N17       30.17F
JAX CRAIG      SUNNY     65  45  48 NW16      30.16F
JAX CECIL      SUNNY     64  45  48 NW15      30.17F
FERNANDINA BEA FAIR      70  45  40 NW13      30.14F
ST AUGUSTINE   MOSUNNY   66  48  52 NW15G21   30.15F

STATION/POSITION SKY/WX   TEMP    WIND        PRES    WAVE   SWELL
                          AIR SEA DIR/SP/G            HT/PER HT/PER
                          (F)     (DEG/KT/KT) (MB)    (FT/S) (FT/S)
SHELL POINT                57      10/ 10/ 17   N/A
KEATON BEACH               60     360/ 10/ 14 1023.2F
CEDAR KEY                  64     310/  6/  9 1022.8F
FERNANDINA                 61 55  310/ 13/ 16 1020.6F
30.7N   81.3W                 56                N/A     2/11
MAYPORT                    61 57  300/ 12/ 15 1021.2F
31.4N   80.9W              53 54  330/ 16/ 19 1021.0F   3/ 4   2/10
ST AUGUSTINE               64     310/ 10/ 14 1021.2F

$$
FLZ040-043>046-052-053-057-058-063-144-301900-
INTERIOR CENTRAL FLORIDA

CITY           SKY/WX    TMP DP  RH WIND       PRES   REMARKS
OCALA          MOSUNNY   68  54  60 NW12      30.17F
THE VILLAGES     N/A     70  55  60 W10       30.06F
LEESBURG       MOSUNNY   67  57  70 W9        30.16F
SANFORD        CLOUDY    69  56  62 W16       30.15F
ORLANDO EXEC   CLOUDY    67  56  67 NW10G22   30.16F
ORLANDO INTL   CLOUDY    69  58  67 NW12      30.16F
KISSIMMEE      PTSUNNY   70  59  68 W8        30.16F
WINTER HAVEN   CLOUDY    71  56  58 W9        30.17F
LAKELAND       PTSUNNY   70  57  64 W13       30.17F
BARTOW         PTSUNNY   70  54  56 W10       30.18F
OKEECHOBEE     SUNNY     72  48  43 NW13      30.18F

$$
FLZ041-047-054-059-064-141-147-301900-
EAST CENTRAL FLORIDA

CITY           SKY/WX    TMP DP  RH WIND       PRES   REMARKS
ORMOND BEACH   MOSUNNY   64  54  68 NW14G20   30.13F
DAYTONA BEACH  MOSUNNY   68  56  65 W12       30.14F
DELAND         PTCLDY    68  55  64 SW9       30.15F
NEW SMYRNA BEA CLOUDY    68  57  68 W13G24    30.15F
JFK SPACE CTR  CLOUDY    68  56  64 NW14G21   30.13F
TITUSVILLE     PTSUNNY   70  57  64 NW18      30.14F
CAPE CANAVERAL MOSUNNY   70  56  61 NW13      30.13F
PATRICK AFB    MOSUNNY   73  56  57 W13       30.14F
MELBOURNE      MOSUNNY   74  53  48 W12       30.14F
VERO BEACH     SUNNY     72  47  40 NW15      30.16F
FT PIERCE      SUNNY     73  49  42 W14G30    30.16F
STUART         SUNNY     72  46  40 W12G18    30.17F

STATION/POSITION SKY/WX   TEMP    WIND        PRES    WAVE   SWELL
                          AIR SEA DIR/SP/G            HT/PER HT/PER
                          (F)     (DEG/KT/KT) (MB)    (FT/S) (FT/S)
28.5N   80.2W              63 68  230/ 14/ 16 1021.3F
28.9N   78.5W              69 74  270/ 21/ 27 1019.1F   6/11   3/11
TRIDENT PIER     NOT AVBL
28.4N   80.5W                 63                N/A     2/10
27.6N   80.2W                 66                N/A     3/10   2/12

$$
FLZ050-056-061-142-242-148-248-149-249-151-251-155-255-
160-260-301900-
WEST CENTRAL FLORIDA

CITY           SKY/WX    TMP DP  RH WIND       PRES   REMARKS
CRYSTAL RIVER  FAIR      70  54  56 W7        30.17F
INVERNESS      MOCLDY    68  55  64 W5        30.17F
BROOKSVILLE    CLOUDY    65  58  78 W14       30.19F
ZEPHYRHILLS    CLOUDY    68  55  64 W10       30.18F
CLEARWATER     CLOUDY    70  58  65 W12       30.18F
TAMPA INTL     PTSUNNY   69  57  65 W9        30.18F
TAMPA EXEC     CLOUDY    73  59  60 W5        30.18F
PLANT CITY       N/A    N/A N/A N/A MISG        N/A
MACDILL AFB    CLOUDY    66  63  87 SW6       30.18F
PETER O KNIGHT CLOUDY    70  61  73 SW7       30.18F
ST PETERSBURG  CLOUDY    67  57  70 W9        30.17F
SARASOTA       SUNNY     65  57  75 SW9       30.18F
VENICE         FAIR      66  57  72 S9        30.20F

STATION/POSITION SKY/WX   TEMP    WIND        PRES    WAVE   SWELL
                          AIR SEA DIR/SP/G            HT/PER HT/PER
                          (F)     (DEG/KT/KT) (MB)    (FT/S) (FT/S)
CEDAR KEY                  64     310/  6/  9 1022.8F
28.5N   84.5W              63 67  360/ 17/ 19 1023.1F   3/ 4
27.3N   84.3W                 72                N/A     2/ 4
CLEARWATER BEACH           62 61  200/  9/ 10 1021.9F
MIDDLE TAMPA BAY           63     250/  7/  8 1022.6F
VENICE                     63 63  210/  7/  8 1022.1F

$$
FLZ066-069-070-075>078-162-262-165-265-301900-
SOUTHWEST FLORIDA AND KEYS

CITY           SKY/WX    TMP DP  RH WIND       PRES   REMARKS
PUNTA GORDA    MOSUNNY   72  53  51 NW9       30.20F
FT MYERS       SUNNY     72  53  51 W15       30.18F
SOUTHWEST INTL SUNNY     71  50  47 VRB7      30.18F
NAPLES         SUNNY     70  48  45 W8        30.19F
MARCO ISLAND   PTCLDY   N/A N/A N/A W8G16     30.18F
IMMOKALEE      CLEAR    N/A N/A N/A W5        30.19F
MARATHON       SUNNY     71  57  61 N9        30.18F
KEY WEST NAS   MOSUNNY   72  55  55 N15       30.19F
KEY WEST INTL  SUNNY     71  57  61 N14       30.20F

STATION/POSITION SKY/WX   TEMP    WIND        PRES    WAVE   SWELL
                          AIR SEA DIR/SP/G            HT/PER HT/PER
                          (F)     (DEG/KT/KT) (MB)    (FT/S) (FT/S)
VENICE                     63 63  210/  7/  8 1022.1F
NAPLES                     64     330/  8/  9 1023.1F
26.0N   85.6W              69 73  330/  4/  6 1023.6F   2/ 5   2/ 5
DRY TORTUGAS               67      10/ 13/ 15 1023.5F
NW FL BAY                  66     330/  7/  8 1023.4F
SAND KEY                   67      10/ 15/ 17 1022.5F
SOMBRERO KEY               67     360/ 10/ 11 1022.5F
LONG KEY                   66 65  360/  6/  7 1023.5F
MOLASSES REEF              69 75  320/  7/  8 1021.7F

$$
FLZ067-068-071>074-168-172>174-301900-
SOUTHEAST FLORIDA

CITY           SKY/WX    TMP DP  RH WIND       PRES   REMARKS
W PALM BEACH   MOSUNNY   74  51  44 W12G17    30.15F
FT LAUDER-EXEC SUNNY     74  50  42 W10       30.16F
FT LAUDERDALE  MOSUNNY   72  52  49 NW7       30.16F
POMPANO BEACH  SUNNY     76  51  41 W13       30.17F
PEMBROKE PINES SUNNY     72  51  47 W9        30.18F
OPA LOCKA      MOSUNNY   73  51  46 W9        30.17F
MIAMI          MOSUNNY   73  50  44 VRB7      30.18F
WEST KENDALL   SUNNY     76  51  41 NW10      30.18F
HOMESTEAD      SUNNY     75  51  42 W7        30.17F

STATION/POSITION SKY/WX   TEMP    WIND        PRES    WAVE   SWELL
                          AIR SEA DIR/SP/G            HT/PER HT/PER
                          (F)     (DEG/KT/KT) (MB)    (FT/S) (FT/S)
PORT EVERGLADES            70     310/  7/ 12 1021.4
VIRGINIA KEY               71 67  300/  3/  6 1022.2F


USA.gov is the U.S. government's official web portal to all federal, state and local government web resources and services.